Location: Bouillancy
(49.1149°N, 2.9308°E)
Time: 23:00:26
(UTC+00:00)

Cosmos 1844 - Pass Details

Date: 30 September 2020
Orbit: 824 x 866 km, 70.9° (Epoch: 25 October)

Event Time Altitude Azimuth Distance (km) Brightness Sun altitude
Rises 18:22:25 0° 217° (SW) 3,399 7.3 -9.7°
Reaches altitude 10° 18:24:54 10° 221° (SW) 2,461 6.6 -10.1°
Maximum altitude 18:30:30 63° 302° (WNW) 933 4.2 -11.0°
Drops below altitude 10° 18:36:05 10° 24° (NNE) 2,450 6.0 -11.9°
Sets 18:38:33 0° 28° (NNE) 3,383 6.7 -12.3°
